Location: Краснодар
(45.0393°N, 38.9872°E)
Time: 01:47:44
(UTC+03:00)

ISS - Visible Passes

Search period start: 16 February 2019 00:00
Search period end: 26 February 2019 00:00
Orbit: 403 x 411 km, 51.6° (Epoch: 16 February)

Date Brightness Start Highest point End Pass type
(mag) Time Alt. Az. Time Alt. Az. Time Alt. Az.
22 Feb -0.7 06:17:24 10° SSE 06:19:01 13° SE 06:20:37 10° ESE visible
24 Feb -1.9 06:09:20 10° SSW 06:12:12 29° SE 06:15:05 10° ENE visible
25 Feb -1.2 05:19:01 12° S 05:20:50 17° SE 05:23:02 10° E visible
